Martinsville, VA

11:03 AM EDT on April 24, 2017 (GMT -0400)
Blue Ridge

Weather History for KMTV - March, 2014

Change the Weather History Date:

Wednesday, March 5, 2014

  Actual Average (KINT) Record (KINT)
Temperature  
Mean Temperature 38 °F -  
Max Temperature 52 °F 54 °F 83 °F (1976)
Min Temperature 23 °F 35 °F 7 °F (1978)
Degree Days  
Heating Degree Days 28    
Moisture  
Dew Point 23 °F    
Average Humidity 67    
Maximum Humidity 96    
Minimum Humidity 30    
Precipitation  
Precipitation 0.00 in - - ()
Sea Level Pressure  
Sea Level Pressure 30.20 in    
Wind  
Wind Speed 1 mph (East)    
Max Wind Speed 7 mph    
Max Gust Speed -    
Visibility 10 miles    
Events      
Averages and records for this station are not official NWS values.
T = Trace of Precipitation, MM = Missing Value Source: NWS Daily Summary

Daily Weather History Graph

Daily Weather History Graph

Search for Another Location

Airport or City:

Trip Planner

Search our weather history database for the weather conditions in past years. The results will help you decide how hot, cold, wet, or windy it might be!

Date:

Astronomy

Mar. 05, 2014 Rise Set
Actual Time 6:45 AM EST 6:18 PM EST
Civil Twilight 6:19 AM EST 6:44 PM EST
Nautical Twilight 5:49 AM EST 7:14 PM EST
Astronomical Twilight 5:19 AM EST 7:44 PM EST
Moon 9:17 AM EST (3/5) 11:16 PM EST (3/5)
Length of Visible Light 12h 24m
Length of Day
11h 33m
Waxing Crescent, 23% of the Moon is Illuminated
Mar 5
Waxing Crescent
Mar 8
First Quarter
Mar 16
Full
Mar 23
Last Quarter
Mar 30
New

Hourly Weather History & Observations

Time (EST) Temp. Windchill Dew Point Humidity Pressure Visibility Wind Dir Wind Speed Gust Speed Precip Events Conditions
12:15 AM 26.2 °F - 21.6 °F 82% 30.22 in 10.0 mi Calm Calm - N/A   Clear
12:35 AM 26.1 °F - 21.6 °F 83% 30.20 in 10.0 mi Calm Calm - N/A   Clear
12:55 AM 25.7 °F - 21.6 °F 84% 30.21 in 10.0 mi Calm Calm - N/A   Clear
1:15 AM 25.9 °F - 22.1 °F 86% 30.20 in 10.0 mi Calm Calm - N/A   Clear
1:35 AM 25.9 °F - 23.0 °F 89% 30.20 in 10.0 mi Calm Calm - N/A   Clear
1:55 AM 25.7 °F - 22.1 °F 86% 30.20 in 10.0 mi Calm Calm - N/A   Clear
2:15 AM 25.2 °F - 22.6 °F 90% 30.20 in 10.0 mi Calm Calm - N/A   Clear
2:35 AM 25.2 °F - 22.8 °F 91% 30.19 in 10.0 mi Calm Calm - N/A   Clear
2:55 AM 25.5 °F - 22.6 °F 89% 30.19 in 10.0 mi Calm Calm - N/A   Clear
3:15 AM 25.3 °F - 22.8 °F 90% 30.19 in 10.0 mi Calm Calm - N/A   Clear
3:35 AM 24.4 °F - 22.5 °F 92% 30.18 in 10.0 mi Calm Calm - N/A   Clear
3:55 AM 24.6 °F - 22.8 °F 93% 30.18 in 10.0 mi Calm Calm - N/A   Clear
4:15 AM 24.6 °F - 22.6 °F 92% 30.18 in 10.0 mi Calm Calm - N/A   Clear
4:35 AM 24.3 °F - 22.5 °F 93% 30.18 in 10.0 mi Calm Calm - N/A   Clear
4:55 AM 24.3 °F - 22.8 °F 94% 30.19 in 10.0 mi Calm Calm - N/A   Clear
5:15 AM 24.4 °F - 23.0 °F 94% 30.19 in 10.0 mi Calm Calm - N/A   Clear
5:35 AM 24.3 °F - 22.8 °F 94% 30.20 in 10.0 mi Calm Calm - N/A   Clear
5:55 AM 24.6 °F - 23.0 °F 94% 30.20 in 10.0 mi Calm Calm - N/A   Clear
6:15 AM 23.7 °F - 22.3 °F 94% 30.20 in 10.0 mi Calm Calm - N/A   Clear
6:35 AM 23.4 °F - 22.3 °F 96% 30.20 in 10.0 mi Calm Calm - N/A   Clear
6:55 AM 23.4 °F 18.9 °F 22.1 °F 95% 30.20 in 10.0 mi NW 3.5 mph - N/A   Clear
7:15 AM 24.3 °F - 22.8 °F 94% 30.20 in 10.0 mi Calm Calm - N/A   Clear
7:35 AM 24.8 °F - 23.2 °F 94% 30.20 in 10.0 mi Calm Calm - N/A   Clear
7:55 AM 25.3 °F - 23.4 °F 92% 30.20 in 10.0 mi Calm Calm - N/A   Clear
8:15 AM 26.8 °F - 23.9 °F 89% 30.21 in 10.0 mi Calm Calm - N/A   Clear
8:35 AM 28.2 °F - 23.0 °F 81% 30.22 in 10.0 mi Calm Calm - N/A   Clear
8:55 AM 29.5 °F - 23.9 °F 80% 30.21 in 10.0 mi Calm Calm - N/A   Clear
9:15 AM 31.8 °F - 23.4 °F 71% 30.21 in 10.0 mi Calm Calm - N/A   Clear
9:35 AM 33.3 °F - 23.0 °F 66% 30.21 in 10.0 mi Calm Calm - N/A   Clear
9:55 AM 35.8 °F - 24.6 °F 64% 30.22 in 10.0 mi Calm Calm - N/A   Clear
10:15 AM 37.2 °F - 23.7 °F 58% 30.21 in 10.0 mi Calm Calm - N/A   Clear
10:30 AM 38.7 °F - 25.0 °F 58% 30.21 in 10.0 mi Calm Calm - N/A   Clear
10:55 AM 41.0 °F - 25.9 °F 55% 30.20 in 10.0 mi Calm Calm - N/A   Clear
11:15 AM 42.4 °F 40.7 °F 26.2 °F 53% 30.21 in 10.0 mi NE 3.5 mph - N/A   Clear
11:35 AM 43.3 °F 41.7 °F 26.6 °F 52% 30.22 in 10.0 mi NE 3.5 mph - N/A   Clear
11:55 AM 45.1 °F - 26.6 °F 48% 30.21 in 10.0 mi Calm Calm - N/A   Clear
12:15 PM 47.1 °F - 26.6 °F 45% 30.20 in 10.0 mi Calm Calm - N/A   Clear
12:35 PM 47.1 °F - 26.2 °F 44% 30.19 in 10.0 mi Calm Calm - N/A   Clear
12:55 PM 47.3 °F - 25.3 °F 42% 30.18 in 10.0 mi Calm Calm - N/A   Clear
1:15 PM 47.7 °F - 26.1 °F 43% 30.17 in 10.0 mi ENE 4.6 mph - N/A   Clear
1:35 PM 47.5 °F - 24.4 °F 41% 30.16 in 10.0 mi NNE 4.6 mph - N/A   Clear
1:55 PM 48.7 °F - 25.2 °F 40% 30.15 in 10.0 mi North 3.5 mph - N/A   Clear
2:15 PM 50.2 °F - 26.2 °F 39% 30.14 in 10.0 mi East 6.9 mph - N/A   Clear
2:35 PM 50.2 °F - 25.9 °F 39% 30.13 in 10.0 mi ESE 5.8 mph - N/A   Clear
2:55 PM 52.0 °F - 25.9 °F 36% 30.13 in 10.0 mi NE 5.8 mph - N/A   Clear
3:15 PM 50.7 °F - 23.2 °F 34% 30.13 in 10.0 mi East 5.8 mph - N/A   Clear
3:35 PM 52.0 °F - 22.8 °F 32% 30.13 in 10.0 mi East 3.5 mph - N/A   Clear
3:55 PM 52.5 °F - 23.5 °F 32% 30.13 in 10.0 mi East 6.9 mph - N/A   Clear
4:15 PM 52.2 °F - 21.7 °F 30% 30.13 in 10.0 mi East 5.8 mph - N/A   Clear
4:35 PM 52.0 °F - 20.8 °F 30% 30.14 in 10.0 mi ESE 3.5 mph - N/A   Clear
4:55 PM 51.8 °F - 21.9 °F 31% 30.15 in 10.0 mi East 6.9 mph - N/A   Clear
5:15 PM 50.4 °F - 22.8 °F 34% 30.17 in 10.0 mi ESE 4.6 mph - N/A   Clear
5:35 PM 49.3 °F - 21.7 °F 34% 30.18 in 10.0 mi East 4.6 mph - N/A   Clear
5:55 PM 47.1 °F - 23.7 °F 40% 30.18 in 10.0 mi ESE 4.6 mph - N/A   Clear
6:15 PM 43.7 °F 40.3 °F 22.5 °F 43% 30.18 in 10.0 mi ESE 5.8 mph - N/A   Clear
6:35 PM 42.3 °F 39.4 °F 21.6 °F 44% 30.18 in 10.0 mi East 4.6 mph - N/A   Clear
6:55 PM 41.4 °F 38.4 °F 20.5 °F 43% 30.18 in 10.0 mi ESE 4.6 mph - N/A   Clear
7:15 PM 40.8 °F - 21.4 °F 46% 30.20 in 10.0 mi Calm Calm - N/A   Clear
7:35 PM 36.5 °F - 21.6 °F 55% 30.23 in 10.0 mi Calm Calm - N/A   Clear
7:55 PM 35.6 °F - 23.7 °F 62% 30.24 in 10.0 mi Calm Calm - N/A   Clear
8:15 PM 33.4 °F - 22.5 °F 64% 30.26 in 10.0 mi Calm Calm - N/A   Clear
8:35 PM 34.3 °F - 23.9 °F 66% 30.26 in 10.0 mi Calm Calm - N/A   Clear
8:55 PM 31.6 °F 28.3 °F 24.3 °F 74% 30.26 in 10.0 mi NW 3.5 mph - N/A   Clear
9:15 PM 30.4 °F - 23.2 °F 75% 30.27 in 10.0 mi Calm Calm - N/A   Clear
9:35 PM 30.2 °F - 23.9 °F 77% 30.28 in 10.0 mi Calm Calm - N/A   Clear
9:55 PM 29.8 °F - 23.2 °F 76% 30.29 in 10.0 mi Calm Calm - N/A   Clear
10:15 PM 28.9 °F - 23.2 °F 79% 30.30 in 10.0 mi Calm Calm - N/A   Clear
10:35 PM 27.9 °F - 23.7 °F 84% 30.30 in 10.0 mi Calm Calm - N/A   Clear
10:55 PM 28.0 °F - 23.9 °F 84% 30.31 in 10.0 mi Calm Calm - N/A   Clear
11:15 PM 27.5 °F - 23.4 °F 84% 30.32 in 10.0 mi Calm Calm - N/A   Clear
11:30 PM 27.3 °F - 22.8 °F 83% 30.32 in 10.0 mi Calm Calm - N/A   Clear
11:55 PM 26.6 °F - 22.8 °F 86% 30.32 in 10.0 mi Calm Calm - N/A   Clear